DW9451 Weather Reports


Display with metric or nautical units.
time (UTC)temp
F
wind
direction
speed
MPH
gust
MPH
rain 1hr
in
rain 24hr
in
rain mn
in
humidity
%
barometer
mb
20210928081610 0 234 0.0 0.0 0.00 0.00 0.00 1009.2
20210928080152 0 229 0.0 0.0 0.00 0.00 0.00 1009.2
20210928074526 0 287 0.0 0.0 0.00 0.00 0.00 1009.2
20210928073035 0 227 0.0 0.0 0.00 0.00 0.00 1009.4
20210928071719 0 360 0.0 0.0 0.00 0.00 0.00 1009.4
20210928070141 0 257 0.0 0.0 0.00 0.00 0.00 1009.5
20210928064541 0 264 0.0 0.0 0.00 0.00 0.00 1009.6
20210928063030 0 231 0.0 0.0 0.00 0.00 0.00 1009.7
20210928061507 0 275 0.0 0.0 0.00 0.00 0.00 1009.9
20210928060002 0 360 0.0 0.0 0.00 0.00 0.00 1010.0
20210928054559 0 221 0.0 0.0 0.00 0.00 0.00 1010.2
20210928053105 0 233 0.0 0.0 0.00 0.00 0.00 1010.3
20210928051517 0 265 0.0 0.0 0.00 0.00 0.00 1010.4
20210928050027 0 239 0.0 0.0 0.00 0.00 0.00 1010.5
20210928044640 0 263 0.0 0.0 0.00 0.00 0.00 1010.5
20210928043154 0 262 0.0 0.0 0.00 0.00 0.00 1010.7
20210928040036 0 231 0.0 0.0 0.00 0.00 0.00 1010.9
20210928034520 0 258 0.0 0.0 0.00 0.00 0.00 1011.0
20210928033037 0 288 0.0 0.0 0.00 0.00 0.00 1011.1
20210928031517 0 267 0.0 0.0 0.00 0.00 0.00 1011.2
20210928030014 0 249 0.0 0.0 0.00 0.00 0.00 1011.2
20210928024504 0 360 0.0 0.0 0.00 0.00 0.00 1011.3
20210928023128 0 232 0.0 0.0 0.00 0.00 0.00 1011.3
20210928021601 0 360 0.0 0.0 0.00 0.00 0.00 1011.2
20210928020057 0 360 0.0 0.0 0.00 0.00 0.00 1011.2
20210928014511 0 360 0.0 0.0 0.00 0.00 0.00 1011.2
20210928013006 0 253 0.0 0.0 0.00 0.00 0.00 1011.2
20210928011805 0 217 0.0 0.0 0.00 0.00 0.00 1011.1
20210928010046 0 360 0.0 0.0 0.00 0.00 0.00 1011.0
20210928004541 0 360 0.0 0.0 0.00 0.00 0.00 1010.9
20210928003021 0 269 0.0 0.0 0.00 0.00 0.00 1010.7
20210928001610 0 269 0.0 0.0 0.00 0.00 0.00 1010.5
20210928000138 0 360 0.0 0.0 0.00 0.00 0.00 1010.5
20210927234530 0 250 0.0 0.0 0.00 0.00 0.00 1010.4
20210927233048 0 271 0.0 0.0 0.00 0.00 0.00 1010.3
20210927231726 0 237 0.0 0.0 0.00 0.00 0.00 1010.3
20210927230115 0 242 0.0 0.0 0.00 0.00 0.00 1010.2
20210927224649 0 360 0.0 0.0 0.00 0.00 0.00 1010.3
20210927223039 0 360 0.0 0.0 0.00 0.00 0.00 1010.1
20210927221510 0 226 0.0 0.0 0.00 0.00 0.00 1010.0
20210927214610 0 258 0.0 0.0 0.00 0.00 0.00 1010.2
20210927213120 0 229 0.0 0.0 0.00 0.00 0.00 1010.1
20210927211517 0 258 0.0 0.0 0.00 0.00 0.00 1010.1
20210927210028 0 252 0.0 0.0 0.00 0.00 0.00 1010.4
20210927204617 0 244 0.0 0.0 0.00 0.00 0.00 1010.3
20210927203053 0 252 0.0 0.0 0.00 0.00 0.00 1010.3
20210927201520 0 240 0.0 0.0 0.00 0.00 0.00 1010.5
20210927200027 0 226 0.0 0.0 0.00 0.00 0.00 1010.7
20210927194635 0 283 0.0 0.0 0.00 0.00 0.00 1010.7
20210927193206 0 360 0.0 0.0 0.00 0.00 0.00 1010.7
20210927191537 0 228 0.0 0.0 0.00 0.00 0.00 1010.9
20210927190030 0 205 0.0 0.0 0.00 0.00 0.00 1011.0
20210927184501 0 224 0.0 0.0 0.00 0.00 0.00 1011.3
20210927183156 0 197 0.0 0.0 0.00 0.00 0.00 1011.2
20210927181635 0 360 0.0 0.0 0.00 0.00 0.00 1011.5
20210927180044 0 217 0.0 0.0 0.00 0.00 0.00 1011.7
20210927174549 0 266 0.0 0.0 0.00 0.00 0.00 1012.2
20210927173051 0 251 0.0 0.0 0.00 0.00 0.00 1012.4
20210927171540 0 265 0.0 0.0 0.00 0.00 0.00 1012.4
20210927170028 0 270 0.0 0.0 0.00 0.00 0.00 1012.6
20210927164558 0 221 0.0 0.0 0.00 0.00 0.00 1012.9
20210927163017 0 269 0.0 0.0 0.00 0.00 0.00 1012.9
20210927161507 0 360 0.0 0.0 0.00 0.00 0.00 1012.9
20210927154730 0 200 0.0 0.0 0.00 0.00 0.00 1013.1
20210927153122 0 214 0.0 0.0 0.00 0.00 0.00 1013.1
20210927151552 0 360 0.0 0.0 0.00 0.00 0.00 1013.5
20210927150010 0 253 0.0 0.0 0.00 0.00 0.00 1013.7
20210927144514 0 225 0.0 0.0 0.00 0.00 0.00 1013.9
20210927143140 0 217 0.0 0.0 0.00 0.00 0.00 1013.9
20210927141554 0 215 0.0 0.0 0.00 0.00 0.00 1013.9
20210927140052 0 236 0.0 0.0 0.00 0.00 0.00 1013.9
20210927134512 0 261 0.0 0.0 0.00 0.00 0.00 1014.0
20210927133248 0 360 0.0 0.0 0.00 0.00 0.00 1014.1
20210927131555 0 229 0.0 0.0 0.00 0.00 0.00 1014.2
20210927130117 0 360 0.0 0.0 0.00 0.00 0.00 1014.3
20210927124616 0 262 0.0 0.0 0.00 0.00 0.00 1014.4
20210927123013 0 263 0.0 0.0 0.00 0.01 0.00 1014.1
20210927121514 0 329 0.0 0.0 0.00 0.01 0.00 1014.3
20210927120156 0 329 0.0 0.0 0.00 0.01 0.00 1014.3
20210927114612 0 329 0.0 0.0 0.00 0.01 0.00 1014.2
20210927113030 0 329 0.0 0.0 0.00 0.01 0.00 1014.3
20210927111520 0 329 0.0 0.0 0.00 0.01 0.00 1014.1
20210927110107 0 329 0.0 0.0 0.00 0.01 0.00 1013.9
20210927104614 0 329 0.0 0.0 0.00 0.01 0.00 1013.8
20210927103030 0 329 0.0 0.0 0.00 0.05 0.00 1013.9
20210927101545 0 329 0.0 0.0 0.00 0.05 0.00 1013.6
20210927100149 0 326 0.0 0.0 0.00 0.05 0.00 1013.4
20210927094634 0 326 0.0 0.0 0.00 0.05 0.00 1013.5
20210927093125 0 326 0.0 0.0 0.00 0.10 0.05 1013.5
20210927091607 0 326 0.0 0.0 0.00 0.10 0.05 1013.4
20210927090005 0 326 0.0 0.0 0.00 0.10 0.05 1013.3
20210927084637 0 342 0.0 0.0 0.00 0.10 0.05 1013.3
20210927083050 0 36 0.0 0.0 0.00 0.38 0.05 1013.2